Location: Mahannah Oil Field
(37.4664°N, 96.6003°W)
Time: 22:15:28
(UTC+00:00)

Courier 1B Rocket - Pass Details

Date: 30 January 2021
Orbit: 920 x 1202 km, 28.2° (Epoch: 08 March)

Event Time Altitude Azimuth Distance (km) Brightness Sun altitude
Exits shadow 10:37:16 27° 154° (SSE) 1,731 6.4 -34.7°
Drops below altitude 10° 10:41:58 10° 109° (ESE) 2,713 8.0 -33.7°
Sets 10:45:05 0° 98° (E) 3,706 9.1 -33.1°
